TimeEDT,TemperatureF,Dew PointF,Humidity,Sea Level PressureIn,VisibilityMPH,Wind Direction,Wind SpeedMPH,Gust SpeedMPH,PrecipitationIn,Events,Conditions,WindDirDegrees,DateUTC
12:26 AM,66.2,59.0,78,30.10,10.0,ENE,11.5,-,N/A,,Overcast,60,2013-10-09 04:26:00
12:53 AM,66.0,57.9,75,30.09,10.0,NNE,8.1,-,N/A,,Overcast,30,2013-10-09 04:53:00
1:42 AM,64.4,57.2,77,30.10,10.0,NE,8.1,-,N/A,,Overcast,50,2013-10-09 05:42:00
1:53 AM,64.0,57.9,80,30.10,10.0,NE,8.1,-,N/A,,Overcast,50,2013-10-09 05:53:00
2:53 AM,63.0,57.9,84,30.10,10.0,NE,9.2,-,N/A,,Overcast,40,2013-10-09 06:53:00
3:53 AM,63.0,57.9,84,30.10,10.0,NNE,6.9,-,N/A,,Overcast,30,2013-10-09 07:53:00
4:53 AM,61.0,59.0,93,30.10,7.0,NE,6.9,-,N/A,,Overcast,40,2013-10-09 08:53:00
5:53 AM,60.1,59.0,96,30.12,3.0,NE,10.4,-,N/A,,Overcast,50,2013-10-09 09:53:00
6:53 AM,60.1,57.9,93,30.12,10.0,NE,10.4,-,N/A,,Overcast,50,2013-10-09 10:53:00
7:14 AM,60.8,57.2,88,30.13,10.0,ENE,9.2,-,N/A,,Overcast,60,2013-10-09 11:14:00
7:53 AM,61.0,55.9,83,30.14,10.0,NE,11.5,-,N/A,,Overcast,40,2013-10-09 11:53:00
8:53 AM,61.0,55.9,83,30.15,10.0,NE,6.9,-,N/A,,Overcast,50,2013-10-09 12:53:00
9:53 AM,61.0,55.9,83,30.17,10.0,NE,10.4,-,N/A,,Overcast,50,2013-10-09 13:53:00
10:53 AM,62.1,57.0,84,30.18,10.0,NNE,6.9,-,N/A,,Overcast,30,2013-10-09 14:53:00
11:53 AM,64.0,57.0,78,30.18,10.0,ENE,9.2,-,N/A,,Overcast,70,2013-10-09 15:53:00
12:53 PM,66.0,57.9,75,30.18,10.0,NNE,5.8,-,N/A,,Overcast,20,2013-10-09 16:53:00
1:04 PM,66.2,57.2,73,30.18,10.0,North,5.8,-,N/A,,Overcast,10,2013-10-09 17:04:00
1:53 PM,66.9,57.9,73,30.16,10.0,NE,6.9,-,N/A,,Overcast,50,2013-10-09 17:53:00
2:45 PM,71.6,60.8,69,30.13,10.0,ENE,8.1,-,N/A,,Scattered Clouds,70,2013-10-09 18:45:00
2:53 PM,72.0,60.1,66,30.13,10.0,ENE,6.9,-,N/A,,Scattered Clouds,60,2013-10-09 18:53:00
3:53 PM,73.9,60.1,62,30.11,10.0,East,4.6,-,N/A,,Partly Cloudy,80,2013-10-09 19:53:00
4:53 PM,75.9,61.0,60,30.10,10.0,NNE,8.1,-,N/A,,Clear,30,2013-10-09 20:53:00
5:53 PM,75.0,61.0,62,30.10,10.0,Calm,Calm,-,N/A,,Clear,0,2013-10-09 21:53:00
6:53 PM,73.9,62.1,66,30.09,10.0,Calm,Calm,-,N/A,,Clear,0,2013-10-09 22:53:00
7:53 PM,68.0,63.0,84,30.09,10.0,Calm,Calm,-,N/A,,Clear,0,2013-10-09 23:53:00
8:53 PM,66.0,63.0,90,30.10,10.0,Calm,Calm,-,N/A,,Clear,0,2013-10-10 00:53:00
9:53 PM,64.0,62.1,93,30.12,10.0,Calm,Calm,-,N/A,,Clear,0,2013-10-10 01:53:00
10:53 PM,64.0,61.0,90,30.12,10.0,Calm,Calm,-,N/A,,Clear,0,2013-10-10 02:53:00
11:53 PM,62.1,61.0,96,30.12,10.0,Calm,Calm,-,N/A,,Clear,0,2013-10-10 03:53:00